User: anonymous   Login
Location: Lango�lan
(48.1202°N, 3.2340°W)
Time: 19:14:11
(UTC+00:00)
Language:

BREEZE-M R/B - Orbit

View from above orbital plane
View from above orbital plane
View from above satellite
View from above satellite

Ground track
Ground track

The orbit data is extracted from the following two-line orbital elements,

1 38746U 12044C   19345.78045053 +.00002683 +00000-0 +17223-3 0  9990
2 38746 049.6780 249.3507 2407090 129.6040 254.3326 10.50232547267007
Epoch (UTC): 11 December 2019 18:43:50
Eccentricity: 0.2407090
inclination: 49.6780°
perigee height: 310 km
apogee height: 4550 km
right ascension of ascending node: 249.3507°
argument of perigee: 129.6040°
revolutions per day: 10.50232547
mean anomaly at epoch: 254.3326°
orbit number at epoch: 26700

The dashed part of the orbit path shows where the satellite is in the earth's shadow,  

DLR